Location: Unspecified
(0.0000°N, 0.0000°E)
Time: 15:38:57
(UTC+00:00)

Hubble Space Telescope - Pass Details

Date: 04 August 2020
Orbit: 536 x 540 km, 28.5° (Epoch: 08 August)

Event Time Altitude Azimuth Distance (km) Brightness Sun altitude
Exits shadow 03:38:23 14° 54° (NE) 1,565 3.8 -35.0°
Drops below altitude 10° 03:38:57 10° 55° (NE) 1,779 4.2 -34.9°
Sets 03:41:12 0° 57° (ENE) 2,669 5.3 -34.4°
